When you browse on this site, cookies collect data to enhance your experience and personalize the content and advertising you see.
Visit our Privacy Policy to learn more. By continuing to use the site, you agree to this use of cookies and data.
  • In Portugal
  • List of Countries
  • For 7 days
  • Water Temperature
  • Satellite Maps
  • Weather Map
  • Weather Widgets
  • user-avatar
    Login

    Hourly Weather El Guna

    Today, 22 May, Wednesday

    Time Temperature Precipitation Wind Pressure Humidity
    00:00 +32°C° 0 mm 1 mps 733 mmHg 13%
    01:00 +31°C° 0 mm 1 mps 733 mmHg 13%
    02:00 +30°C° 0 mm 1 mps 733 mmHg 13%
    03:00 +30°C° 0 mm 1 mps 733 mmHg 14%
    04:00 +29°C° 0 mm 1 mps 733 mmHg 15%
    05:00 +29°C° 0 mm 2 mps 733 mmHg 17%
    06:00 +31°C° 0 mm 2 mps 733 mmHg 16%
    07:00 +34°C° 0 mm 2 mps 734 mmHg 15%
    08:00 +36°C° 0 mm 2 mps 734 mmHg 14%
    09:00 +38°C° 0 mm 3 mps 734 mmHg 13%
    10:00 +39°C° 0 mm 3 mps 734 mmHg 12%
    11:00 +40°C° 0 mm 3 mps 734 mmHg 11%
    12:00 +42°C° 0 mm 4 mps 734 mmHg 10%
    13:00 +42°C° 0 mm 4 mps 734 mmHg 9%
    14:00 +43°C° 0 mm 4 mps 733 mmHg 8%
    15:00 +42°C° 0 mm 4 mps 733 mmHg 8%
    16:00 +42°C° 0 mm 3 mps 733 mmHg 8%
    17:00 +42°C° 0 mm 3 mps 732 mmHg 8%
    18:00 +39°C° 0 mm 2 mps 732 mmHg 9%
    19:00 +37°C° 0 mm 1 mps 732 mmHg 9%
    20:00 +35°C° 0 mm 1 mps 732 mmHg 10%
    21:00 +35°C° 0 mm 1 mps 732 mmHg 10%
    22:00 +34°C° 0 mm 1 mps 733 mmHg 10%
    23:00 +34°C° 0 mm 1 mps 733 mmHg 9%

    Tomorrow, 23 May, Thursday

    Time Temperature Precipitation Wind Pressure Humidity
    00:00 +35°C° 0 mm 2 mps 732 mmHg 10%
    01:00 +34°C° 0 mm 2 mps 732 mmHg 11%
    02:00 +32°C° 0 mm 2 mps 732 mmHg 12%
    03:00 +32°C° 0 mm 2 mps 732 mmHg 12%
    04:00 +32°C° 0 mm 2 mps 732 mmHg 13%
    05:00 +31°C° 0 mm 2 mps 732 mmHg 14%
    06:00 +34°C° 0 mm 2 mps 732 mmHg 13%
    07:00 +36°C° 0 mm 2 mps 732 mmHg 11%
    08:00 +39°C° 0 mm 2 mps 733 mmHg 9%
    09:00 +40°C° 0 mm 3 mps 733 mmHg 9%
    10:00 +42°C° 0 mm 4 mps 733 mmHg 8%
    11:00 +43°C° 0 mm 5 mps 733 mmHg 8%
    12:00 +43°C° 0 mm 5 mps 733 mmHg 8%
    13:00 +44°C° 0 mm 4 mps 732 mmHg 8%
    14:00 +44°C° 0 mm 4 mps 731 mmHg 8%
    15:00 +44°C° 0 mm 4 mps 731 mmHg 8%
    16:00 +43°C° 0 mm 3 mps 731 mmHg 8%
    17:00 +43°C° 0 mm 3 mps 730 mmHg 8%
    18:00 +40°C° 0 mm 2 mps 730 mmHg 9%
    19:00 +39°C° 0 mm 1 mps 731 mmHg 10%
    20:00 +34°C° 0 mm 0 mps 731 mmHg 11%
    21:00 +33°C° 0 mm 0 mps 731 mmHg 11%
    22:00 +33°C° 0 mm 0 mps 731 mmHg 11%
    23:00 +32°C° 0 mm 0 mps 731 mmHg 11%

    Day after tomorrow, 24 May, Friday

    Time Temperature Precipitation Wind Pressure Humidity
    00:00 +32°C° 0 mm 0 mps 731 mmHg 12%
    01:00 +31°C° 0 mm 0 mps 730 mmHg 12%
    02:00 +30°C° 0 mm 0 mps 730 mmHg 13%
    03:00 +30°C° 0 mm 0 mps 730 mmHg 13%
    04:00 +29°C° 0 mm 0 mps 730 mmHg 13%
    05:00 +29°C° 0 mm 0 mps 730 mmHg 14%
    06:00 +32°C° 0 mm 0 mps 730 mmHg 12%
    07:00 +36°C° 0 mm 1 mps 731 mmHg 10%
    08:00 +40°C° 0 mm 1 mps 732 mmHg 8%
    09:00 +41°C° 0 mm 2 mps 732 mmHg 8%
    10:00 +43°C° 0 mm 2 mps 732 mmHg 7%
    11:00 +45°C° 0 mm 3 mps 732 mmHg 6%
    12:00 +45°C° 0 mm 4 mps 732 mmHg 7%
    13:00 +45°C° 0 mm 4 mps 731 mmHg 7%
    14:00 +46°C° 0 mm 5 mps 731 mmHg 7%
    15:00 +46°C° 0 mm 5 mps 731 mmHg 8%
    16:00 +44°C° 0 mm 4 mps 730 mmHg 9%
    17:00 +43°C° 0 mm 4 mps 730 mmHg 9%
    18:00 +42°C° 0 mm 3 mps 730 mmHg 11%
    19:00 +40°C° 0 mm 2 mps 730 mmHg 12%
    20:00 +38°C° 0 mm 2 mps 731 mmHg 14%
    21:00 +38°C° 0 mm 2 mps 731 mmHg 14%
    22:00 +36°C° 0 mm 1 mps 731 mmHg 14%
    23:00 +36°C° 0 mm 1 mps 731 mmHg 14%

    25 May, Saturday

    Time Temperature Precipitation Wind Pressure Humidity
    00:00 +35°C° 0 mm 1 mps 731 mmHg 16%
    01:00 +34°C° 0 mm 1 mps 730 mmHg 18%
    02:00 +33°C° 0 mm 1 mps 730 mmHg 20%
    03:00 +33°C° 0.1 mm 1 mps 730 mmHg 22%
    04:00 +32°C° 0.1 mm 1 mps 730 mmHg 25%
    05:00 +32°C° 0.1 mm 1 mps 731 mmHg 28%
    06:00 +33°C° 0 mm 1 mps 731 mmHg 28%
    07:00 +35°C° 0 mm 2 mps 732 mmHg 28%
    08:00 +36°C° 0 mm 2 mps 732 mmHg 28%
    09:00 +37°C° 0 mm 2 mps 732 mmHg 27%
    10:00 +38°C° 0 mm 3 mps 732 mmHg 27%
    11:00 +39°C° 0 mm 3 mps 732 mmHg 26%
    12:00 +39°C° 0 mm 3 mps 732 mmHg 26%
    13:00 +40°C° 0 mm 3 mps 731 mmHg 25%
    14:00 +40°C° 0 mm 3 mps 731 mmHg 25%
    15:00 +40°C° 0 mm 3 mps 731 mmHg 26%
    16:00 +39°C° 0 mm 2 mps 730 mmHg 27%
    17:00 +38°C° 0 mm 2 mps 730 mmHg 28%
    18:00 +38°C° 0 mm 2 mps 730 mmHg 30%
    19:00 +37°C° 0 mm 2 mps 731 mmHg 32%
    20:00 +36°C° 0 mm 2 mps 731 mmHg 33%
    21:00 +35°C° 0 mm 2 mps 731 mmHg 35%
    22:00 +34°C° 0 mm 2 mps 731 mmHg 36%
    23:00 +34°C° 0 mm 2 mps 731 mmHg 37%

    26 May, Sunday

    Time Temperature Precipitation Wind Pressure Humidity
    00:00 +32°C° 0 mm 2 mps 731 mmHg 35%
    01:00 +32°C° 0 mm 2 mps 731 mmHg 33%
    02:00 +32°C° 0 mm 2 mps 731 mmHg 31%
    03:00 +32°C° 0.1 mm 2 mps 731 mmHg 31%
    04:00 +31°C° 0.1 mm 2 mps 731 mmHg 31%
    05:00 +31°C° 0.1 mm 2 mps 731 mmHg 32%
    06:00 +32°C° 0 mm 2 mps 731 mmHg 30%
    07:00 +34°C° 0 mm 2 mps 731 mmHg 29%
    08:00 +34°C° 0 mm 3 mps 732 mmHg 28%
    09:00 +36°C° 0 mm 3 mps 731 mmHg 25%
    10:00 +38°C° 0 mm 3 mps 731 mmHg 22%
    11:00 +40°C° 0 mm 4 mps 731 mmHg 19%
    12:00 +41°C° 0 mm 4 mps 731 mmHg 18%
    13:00 +42°C° 0 mm 4 mps 730 mmHg 17%
    14:00 +42°C° 0 mm 4 mps 730 mmHg 16%
    15:00 +42°C° 0 mm 4 mps 729 mmHg 17%
    16:00 +41°C° 0 mm 4 mps 729 mmHg 18%
    17:00 +40°C° 0 mm 4 mps 729 mmHg 19%
    18:00 +38°C° 0 mm 3 mps 729 mmHg 20%
    19:00 +37°C° 0 mm 3 mps 730 mmHg 21%
    20:00 +37°C° 0 mm 2 mps 730 mmHg 22%
    21:00 +36°C° 0 mm 2 mps 730 mmHg 22%
    22:00 +35°C° 0 mm 2 mps 730 mmHg 23%
    23:00 +35°C° 0 mm 2 mps 730 mmHg 24%

    27 May, Monday

    Time Temperature Precipitation Wind Pressure Humidity
    00:00 +34°C° 0 mm 2 mps 730 mmHg 25%
    01:00 +32°C° 0 mm 2 mps 730 mmHg 27%
    02:00 +31°C° 0 mm 2 mps 729 mmHg 28%
    03:00 +31°C° 0 mm 2 mps 730 mmHg 29%
    04:00 +30°C° 0 mm 2 mps 730 mmHg 29%
    05:00 +30°C° 0 mm 2 mps 730 mmHg 29%
    06:00 +31°C° 0 mm 2 mps 730 mmHg 27%
    07:00 +32°C° 0 mm 2 mps 730 mmHg 24%
    08:00 +35°C° 0 mm 3 mps 731 mmHg 22%
    09:00 +36°C° 0 mm 3 mps 731 mmHg 20%
    10:00 +37°C° 0 mm 3 mps 731 mmHg 17%
    11:00 +39°C° 0 mm 3 mps 730 mmHg 15%
    12:00 +41°C° 0 mm 4 mps 730 mmHg 14%
    13:00 +42°C° 0 mm 4 mps 730 mmHg 13%
    14:00 +42°C° 0 mm 4 mps 729 mmHg 12%
    15:00 +42°C° 0 mm 4 mps 729 mmHg 13%
    16:00 +41°C° 0 mm 5 mps 729 mmHg 13%
    17:00 +40°C° 0 mm 5 mps 729 mmHg 13%
    18:00 +38°C° 0 mm 4 mps 729 mmHg 14%
    19:00 +37°C° 0 mm 3 mps 729 mmHg 15%
    20:00 +35°C° 0 mm 2 mps 729 mmHg 16%
    21:00 +35°C° 0 mm 2 mps 730 mmHg 16%
    22:00 +34°C° 0 mm 2 mps 730 mmHg 16%
    23:00 +34°C° 0 mm 2 mps 730 mmHg 15%
    Show more